TimeGMT,TemperatureF,Dew PointF,Humidity,Sea Level PressureIn,VisibilityMPH,Wind Direction,Wind SpeedMPH,Gust SpeedMPH,PrecipitationIn,Events,Conditions,WindDirDegrees,DateUTC
12:50 AM,35.6,33.8,93,30.01,6.2,ESE,2.3,-,N/A,,Unknown,110,2012-11-12 00:50:00
1:50 AM,32.0,32.0,100,30.01,3.7,SSE,1.2,-,N/A,,Scattered Clouds,150,2012-11-12 01:50:00
2:50 AM,39,38,92,30.03,6,SE,5.8,,,,Mostly Cloudy,140,2012-11-12 02:50:00
2:50 AM,39.2,37.4,93,30.01,6.2,SE,5.8,-,N/A,,Mostly Cloudy,140,2012-11-12 02:50:00
4:50 AM,39.2,37.4,93,30.01,4.3,SSE,6.9,-,N/A,,Overcast,150,2012-11-12 04:50:00
5:50 AM,40,39,93,30.02,6,SE,8.1,,,,Scattered Clouds,130,2012-11-12 05:50:00
5:50 AM,39.2,39.2,100,30.01,6.2,SE,8.1,-,N/A,,Mostly Cloudy,130,2012-11-12 05:50:00
6:50 AM,39.2,39.2,100,30.01,5.0,SSE,9.2,-,N/A,,Mostly Cloudy,150,2012-11-12 06:50:00
7:50 AM,41.0,39.2,93,30.01,3.7,SSE,8.1,-,N/A,,Mostly Cloudy,150,2012-11-12 07:50:00
8:50 AM,41,39,92,30.01,9,SSE,9.2,,,,Mostly Cloudy,150,2012-11-12 08:50:00
8:50 AM,41.0,39.2,93,30.01,6.2,SSE,9.2,-,N/A,,Mostly Cloudy,150,2012-11-12 08:50:00
9:50 AM,42.8,41.0,93,29.98,6.2,SSE,6.9,-,N/A,,Overcast,150,2012-11-12 09:50:00
10:50 AM,44.6,42.8,93,29.98,6.2,SSE,9.2,-,N/A,Rain,Light Rain,150,2012-11-12 10:50:00
11:50 AM,46,44,89,29.96,5,SSE,16.1,,,Rain,Rain,160,2012-11-12 11:50:00
11:50 AM,46.4,44.6,93,29.95,5.0,SSE,16.1,-,N/A,Rain,Rain,160,2012-11-12 11:50:00
12:50 PM,46.4,44.6,93,29.95,4.3,SSE,15.0,-,N/A,,Overcast,160,2012-11-12 12:50:00
1:50 PM,46.4,44.6,93,29.95,4.3,SSE,11.5,-,N/A,,Light Drizzle,160,2012-11-12 13:50:00
2:50 PM,47,46,93,29.95,7,SSE,11.5,,,Rain,Light Drizzle,150,2012-11-12 14:50:00
2:50 PM,48.2,46.4,93,29.95,6.2,SSE,11.5,-,N/A,,Mostly Cloudy,150,2012-11-12 14:50:00
3:50 PM,46.4,46.4,100,29.95,6.2,SSE,11.5,-,N/A,,Mostly Cloudy,160,2012-11-12 15:50:00
4:50 PM,48.2,46.4,93,29.95,6.2,SSE,11.5,-,N/A,,Mostly Cloudy,160,2012-11-12 16:50:00
5:50 PM,47,46,95,29.98,5,SSE,8.1,,,,Mist,150,2012-11-12 17:50:00
5:50 PM,46.4,46.4,100,29.98,5.0,SSE,8.1,-,N/A,,Scattered Clouds,150,2012-11-12 17:50:00
6:50 PM,48.2,46.4,93,29.98,4.3,SSE,9.2,-,N/A,,Mostly Cloudy,150,2012-11-12 18:50:00
7:50 PM,51.8,50.0,94,29.98,6.2,South,10.4,-,N/A,,Overcast,180,2012-11-12 19:50:00
8:50 PM,53,50,84,30.01,7,South,8.1,,,,Partly Cloudy,180,2012-11-12 20:50:00
8:50 PM,51.8,50.0,94,30.01,6.2,South,8.1,-,N/A,,Scattered Clouds,180,2012-11-12 20:50:00
9:50 PM,53.6,50.0,88,30.01,6.2,South,9.2,-,N/A,,Mostly Cloudy,180,2012-11-12 21:50:00
10:50 PM,51.8,50.0,94,30.01,6.2,SW,10.4,-,N/A,,Partly Cloudy,230,2012-11-12 22:50:00
11:50 PM,51,49,89,30.05,10,ESE,5.8,,,,Scattered Clouds,120,2012-11-12 23:50:00
11:50 PM,51.8,48.2,88,30.04,6.2,ESE,5.8,-,N/A,,Partly Cloudy,120,2012-11-12 23:50:00